| time (UTC) | temp F | wind direction | speed MPH | gust MPH | rain 1hr in | rain 24hr in | rain mn in | humidity % | barometer mb |
| 20260507203038 | 52 | 81 | 2.0 | 6.0 | 0.00 | 0.00 | 0.00 | 83 | 1017.5 |
| 20260507202018 | 52 | 69 | 1.0 | 3.0 | 0.00 | 0.00 | 0.00 | 82 | 1017.4 |
| 20260507201018 | 52 | 80 | 2.0 | 4.0 | 0.00 | 0.00 | 0.00 | 81 | 1017.3 |
| 20260507200018 | 52 | 77 | 3.0 | 7.0 | 0.00 | 0.00 | 0.00 | 81 | 1017.1 |
| 20260507195018 | 53 | 74 | 4.0 | 6.0 | 0.00 | 0.00 | 0.00 | 80 | 1017.0 |
| 20260507194019 | 53 | 103 | 2.0 | 4.0 | 0.00 | 0.00 | 0.00 | 80 | 1016.9 |
| 20260507193019 | 53 | 42 | 0.0 | 2.0 | 0.00 | 0.00 | 0.00 | 79 | 1016.9 |
| 20260507192019 | 54 | 57 | 2.0 | 4.0 | 0.00 | 0.00 | 0.00 | 79 | 1016.9 |
| 20260507191019 | 54 | 65 | 1.0 | 4.0 | 0.00 | 0.00 | 0.00 | 78 | 1016.9 |
| 20260507190019 | 54 | 83 | 3.0 | 8.0 | 0.00 | 0.00 | 0.00 | 78 | 1016.9 |
| 20260507185019 | 54 | 71 | 2.0 | 4.0 | 0.00 | 0.00 | 0.00 | 77 | 1016.9 |
| 20260507184019 | 55 | 64 | 2.0 | 4.0 | 0.00 | 0.00 | 0.00 | 77 | 1016.9 |
| 20260507183019 | 55 | 93 | 4.0 | 7.0 | 0.00 | 0.00 | 0.00 | 76 | 1016.9 |
| 20260507182040 | 56 | 230 | 1.0 | 3.0 | 0.00 | 0.00 | 0.00 | 75 | 1016.8 |
| 20260507181039 | 56 | 147 | 0.0 | 1.0 | 0.00 | 0.00 | 0.00 | 75 | 1016.8 |
| 20260507180020 | 56 | 162 | 4.0 | 10.0 | 0.00 | 0.00 | 0.00 | 74 | 1016.7 |
| 20260507175020 | 56 | 195 | 2.0 | 5.0 | 0.00 | 0.00 | 0.00 | 75 | 1016.8 |
| 20260507174020 | 56 | 187 | 4.0 | 10.0 | 0.00 | 0.00 | 0.00 | 74 | 1016.8 |
| 20260507173020 | 56 | 146 | 5.0 | 7.0 | 0.00 | 0.00 | 0.00 | 74 | 1016.8 |
| 20260507172041 | 56 | 170 | 3.0 | 8.0 | 0.00 | 0.00 | 0.00 | 74 | 1016.9 |
| 20260507171021 | 56 | 191 | 3.0 | 10.0 | 0.00 | 0.00 | 0.00 | 74 | 1016.8 |
| 20260507170021 | 57 | 88 | 3.0 | 6.0 | 0.00 | 0.00 | 0.00 | 74 | 1016.8 |
| 20260507165021 | 57 | 160 | 5.0 | 9.0 | 0.00 | 0.00 | 0.00 | 74 | 1016.8 |
| 20260507164041 | 56 | 174 | 2.0 | 8.0 | 0.00 | 0.00 | 0.00 | 75 | 1016.8 |
| 20260507163021 | 57 | 180 | 3.0 | 9.0 | 0.00 | 0.00 | 0.00 | 73 | 1016.8 |
| 20260507162020 | 56 | 173 | 3.0 | 8.0 | 0.00 | 0.00 | 0.00 | 74 | 1016.8 |
| 20260507161041 | 57 | 188 | 4.0 | 9.0 | 0.00 | 0.00 | 0.00 | 74 | 1016.9 |
| 20260507160021 | 57 | 179 | 4.0 | 9.0 | 0.00 | 0.00 | 0.00 | 73 | 1016.9 |
| 20260507155041 | 57 | 149 | 3.0 | 7.0 | 0.00 | 0.00 | 0.00 | 73 | 1016.9 |
| 20260507154021 | 57 | 165 | 5.0 | 12.0 | 0.00 | 0.00 | 0.00 | 74 | 1017.0 |
| 20260507153021 | 58 | 185 | 5.0 | 14.0 | 0.00 | 0.00 | 0.00 | 72 | 1017.0 |
| 20260507152042 | 57 | 159 | 3.0 | 13.0 | 0.00 | 0.00 | 0.00 | 72 | 1017.1 |
| 20260507151021 | 57 | 218 | 2.0 | 8.0 | 0.00 | 0.00 | 0.00 | 72 | 1017.1 |
| 20260507150022 | 57 | 177 | 4.0 | 7.0 | 0.00 | 0.00 | 0.00 | 73 | 1017.1 |
| 20260507145042 | 57 | 175 | 5.0 | 12.0 | 0.00 | 0.00 | 0.00 | 74 | 1017.1 |
| 20260507144022 | 57 | 177 | 5.0 | 11.0 | 0.00 | 0.00 | 0.00 | 73 | 1017.1 |
| 20260507143022 | 57 | 153 | 3.0 | 8.0 | 0.00 | 0.00 | 0.00 | 72 | 1017.1 |
| 20260507142022 | 58 | 180 | 6.0 | 10.0 | 0.00 | 0.00 | 0.00 | 71 | 1017.2 |
| 20260507141016 | 58 | 175 | 7.0 | 13.0 | 0.00 | 0.00 | 0.00 | 71 | 1017.3 |
| 20260507140036 | 58 | 158 | 4.0 | 6.0 | 0.00 | 0.00 | 0.00 | 71 | 1017.3 |
| 20260507135017 | 58 | 171 | 5.0 | 10.0 | 0.00 | 0.00 | 0.00 | 72 | 1017.4 |
| 20260507134017 | 58 | 191 | 6.0 | 13.0 | 0.00 | 0.00 | 0.00 | 72 | 1017.4 |
| 20260507133023 | 58 | 210 | 7.0 | 13.0 | 0.00 | 0.00 | 0.00 | 71 | 1017.4 |
| 20260507132023 | 58 | 178 | 4.0 | 7.0 | 0.00 | 0.00 | 0.00 | 71 | 1017.3 |
| 20260507131017 | 58 | 184 | 6.0 | 12.0 | 0.00 | 0.00 | 0.00 | 71 | 1017.4 |
| 20260507130017 | 58 | 161 | 6.0 | 15.0 | 0.00 | 0.00 | 0.00 | 72 | 1017.4 |
| 20260507125037 | 58 | 184 | 4.0 | 11.0 | 0.00 | 0.00 | 0.00 | 72 | 1017.4 |
| 20260507124017 | 58 | 180 | 5.0 | 11.0 | 0.00 | 0.00 | 0.00 | 72 | 1017.4 |
| 20260507123018 | 58 | 180 | 4.0 | 11.0 | 0.00 | 0.00 | 0.00 | 72 | 1017.3 |
| 20260507122017 | 58 | 153 | 6.0 | 14.0 | 0.00 | 0.00 | 0.00 | 72 | 1017.4 |
| 20260507121018 | 58 | 178 | 6.0 | 15.0 | 0.00 | 0.00 | 0.00 | 73 | 1017.5 |
| 20260507120039 | 57 | 180 | 6.0 | 13.0 | 0.00 | 0.00 | 0.00 | 73 | 1017.5 |
| 20260507115018 | 56 | 177 | 7.0 | 17.0 | 0.00 | 0.00 | 0.00 | 74 | 1017.5 |
| 20260507114058 | 57 | 136 | 4.0 | 11.0 | 0.00 | 0.00 | 0.00 | 73 | 1017.5 |
| 20260507113018 | 57 | 165 | 4.0 | 11.0 | 0.00 | 0.00 | 0.00 | 74 | 1017.4 |
| 20260507112039 | 56 | 111 | 5.0 | 10.0 | 0.00 | 0.00 | 0.00 | 75 | 1017.4 |
| 20260507111058 | 56 | 181 | 5.0 | 11.0 | 0.00 | 0.00 | 0.00 | 75 | 1017.5 |
| 20260507110039 | 56 | 172 | 5.0 | 10.0 | 0.00 | 0.00 | 0.00 | 75 | 1017.6 |
| 20260507105019 | 56 | 173 | 4.0 | 8.0 | 0.00 | 0.00 | 0.00 | 76 | 1017.6 |
| 20260507104019 | 56 | 179 | 4.0 | 9.0 | 0.00 | 0.00 | 0.00 | 76 | 1017.7 |
| 20260507103019 | 55 | 173 | 4.0 | 11.0 | 0.00 | 0.00 | 0.00 | 77 | 1017.8 |
| 20260507102025 | 55 | 101 | 3.0 | 5.0 | 0.00 | 0.00 | 0.00 | 76 | 1017.8 |
| 20260507101019 | 55 | 141 | 5.0 | 8.0 | 0.00 | 0.00 | 0.00 | 76 | 1017.8 |
| 20260507100039 | 55 | 147 | 5.0 | 11.0 | 0.00 | 0.00 | 0.00 | 75 | 1017.8 |
| 20260507095019 | 55 | 155 | 5.0 | 11.0 | 0.00 | 0.00 | 0.00 | 76 | 1017.7 |
| 20260507094019 | 55 | 168 | 4.0 | 8.0 | 0.00 | 0.00 | 0.00 | 76 | 1017.7 |
| 20260507093020 | 55 | 185 | 6.0 | 11.0 | 0.00 | 0.00 | 0.00 | 75 | 1017.7 |
| 20260507092026 | 55 | 200 | 6.0 | 9.0 | 0.00 | 0.00 | 0.00 | 76 | 1017.6 |
| 20260507091026 | 55 | 199 | 4.0 | 9.0 | 0.00 | 0.00 | 0.00 | 76 | 1017.5 |
| 20260507090026 | 54 | 140 | 2.0 | 5.0 | 0.00 | 0.00 | 0.00 | 76 | 1017.5 |
| 20260507085020 | 55 | 171 | 7.0 | 11.0 | 0.00 | 0.00 | 0.00 | 74 | 1017.5 |
| 20260507084026 | 55 | 19 | 3.0 | 4.0 | 0.00 | 0.00 | 0.00 | 73 | 1017.4 |
| 20260507083026 | 55 | 56 | 1.0 | 4.0 | 0.00 | 0.00 | 0.00 | 73 | 1017.4 |
| 20260507082026 | 55 | 127 | 1.0 | 4.0 | 0.00 | 0.00 | 0.00 | 73 | 1017.3 |
| 20260507081027 | 55 | 47 | 4.0 | 5.0 | 0.00 | 0.00 | 0.00 | 75 | 1017.3 |
| 20260507080046 | 54 | 350 | 2.0 | 5.0 | 0.00 | 0.00 | 0.00 | 76 | 1017.2 |
| 20260507075027 | 53 | 59 | 3.0 | 6.0 | 0.00 | 0.00 | 0.00 | 78 | 1017.2 |
| 20260507074027 | 53 | 74 | 2.0 | 4.0 | 0.00 | 0.00 | 0.00 | 79 | 1017.2 |
| 20260507073027 | 52 | 73 | 3.0 | 8.0 | 0.00 | 0.00 | 0.00 | 80 | 1017.1 |
| 20260507072027 | 52 | 73 | 2.0 | 5.0 | 0.00 | 0.00 | 0.00 | 81 | 1017.1 |
| 20260507071027 | 52 | 95 | 1.0 | 3.0 | 0.00 | 0.00 | 0.00 | 83 | 1017.0 |
| 20260507070028 | 51 | 87 | 2.0 | 4.0 | 0.00 | 0.00 | 0.00 | 84 | 1017.0 |
| 20260507065108 | 51 | 88 | 3.0 | 9.0 | 0.00 | 0.00 | 0.00 | 85 | 1017.0 |
| 20260507064027 | 50 | 12 | 2.0 | 3.0 | 0.00 | 0.00 | 0.00 | 85 | 1017.0 |
| 20260507063027 | 50 | 71 | 1.0 | 3.0 | 0.00 | 0.00 | 0.00 | 86 | 1017.0 |
| 20260507062028 | 50 | 64 | 2.0 | 4.0 | 0.00 | 0.00 | 0.00 | 86 | 1016.9 |
| 20260507061028 | 49 | 75 | 1.0 | 4.0 | 0.00 | 0.00 | 0.00 | 87 | 1016.8 |
| 20260507060028 | 49 | 78 | 2.0 | 6.0 | 0.00 | 0.00 | 0.00 | 87 | 1016.7 |
| 20260507055048 | 49 | 72 | 4.0 | 9.0 | 0.00 | 0.00 | 0.00 | 88 | 1016.7 |
| 20260507054028 | 49 | 218 | 0.0 | 0.0 | 0.00 | 0.00 | 0.00 | 88 | 1016.6 |
| 20260507053029 | 49 | 51 | 2.0 | 5.0 | 0.00 | 0.00 | 0.00 | 88 | 1016.4 |
| 20260507052108 | 49 | 58 | 3.0 | 7.0 | 0.00 | 0.00 | 0.00 | 88 | 1016.5 |
| 20260507051029 | 49 | 89 | 1.0 | 5.0 | 0.00 | 0.00 | 0.00 | 88 | 1016.5 |
| 20260507050029 | 49 | 247 | 1.0 | 3.0 | 0.00 | 0.00 | 0.00 | 88 | 1016.5 |
| 20260507045029 | 49 | 63 | 0.0 | 1.0 | 0.00 | 0.00 | 0.00 | 88 | 1016.4 |
| 20260507044029 | 49 | 16 | 1.0 | 4.0 | 0.00 | 0.00 | 0.00 | 88 | 1016.4 |
| 20260507043029 | 49 | 355 | 0.0 | 3.0 | 0.00 | 0.00 | 0.00 | 88 | 1016.2 |
| 20260507042029 | 49 | 57 | 1.0 | 3.0 | 0.00 | 0.00 | 0.00 | 87 | 1016.2 |
| 20260507041029 | 49 | 22 | 2.0 | 3.0 | 0.00 | 0.00 | 0.00 | 87 | 1016.2 |
| 20260507040050 | 49 | 54 | 0.0 | 1.0 | 0.00 | 0.00 | 0.00 | 87 | 1016.1 |
| 20260507035030 | 49 | 59 | 3.0 | 6.0 | 0.00 | 0.00 | 0.00 | 87 | 1016.1 |
| 20260507034030 | 49 | 70 | 1.0 | 4.0 | 0.00 | 0.00 | 0.00 | 87 | 1016.1 |
| 20260507033030 | 49 | 34 | 2.0 | 3.0 | 0.00 | 0.00 | 0.00 | 87 | 1016.0 |
| 20260507032031 | 49 | 0.0 | 0.0 | 0.00 | 0.00 | 0.00 | 87 | 1016.0 | |
| 20260507031050 | 49 | 109 | 0.0 | 2.0 | 0.00 | 0.00 | 0.00 | 87 | 1016.0 |
| 20260507030030 | 49 | 144 | 1.0 | 2.0 | 0.00 | 0.00 | 0.00 | 87 | 1016.0 |
| 20260507025030 | 49 | 41 | 1.0 | 4.0 | 0.00 | 0.00 | 0.00 | 87 | 1016.0 |
| 20260507024016 | 49 | 98 | 1.0 | 2.0 | 0.00 | 0.00 | 0.00 | 87 | 1015.9 |
| 20260507023016 | 49 | 65 | 1.0 | 4.0 | 0.00 | 0.00 | 0.00 | 87 | 1015.9 |
| 20260507022031 | 49 | 17 | 1.0 | 4.0 | 0.00 | 0.00 | 0.00 | 87 | 1015.8 |
| 20260507021031 | 49 | 3 | 0.0 | 3.0 | 0.00 | 0.00 | 0.00 | 87 | 1015.8 |
| 20260507020051 | 49 | 0.0 | 0.0 | 0.00 | 0.00 | 0.00 | 86 | 1015.7 | |
| 20260507015031 | 49 | 26 | 1.0 | 3.0 | 0.00 | 0.00 | 0.00 | 86 | 1015.7 |
| 20260507014051 | 49 | 349 | 1.0 | 5.0 | 0.00 | 0.00 | 0.00 | 86 | 1015.7 |
| 20260507013036 | 49 | 0.0 | 0.0 | 0.00 | 0.00 | 0.00 | 86 | 1015.8 | |
| 20260507012017 | 50 | 60 | 0.0 | 1.0 | 0.00 | 0.00 | 0.00 | 85 | 1015.8 |
| 20260507011017 | 50 | 70 | 0.0 | 1.0 | 0.00 | 0.00 | 0.00 | 85 | 1015.8 |
| 20260507010017 | 50 | 38 | 0.0 | 2.0 | 0.00 | 0.00 | 0.00 | 85 | 1015.8 |
| 20260507005017 | 50 | 40 | 0.0 | 2.0 | 0.00 | 0.00 | 0.00 | 85 | 1015.7 |
| 20260507004017 | 50 | 75 | 1.0 | 4.0 | 0.00 | 0.00 | 0.00 | 84 | 1015.7 |
| 20260507003017 | 50 | 44 | 1.0 | 2.0 | 0.00 | 0.00 | 0.00 | 84 | 1015.8 |
| 20260507002017 | 50 | 7 | 0.0 | 0.0 | 0.00 | 0.00 | 0.00 | 83 | 1015.9 |
| 20260507001032 | 50 | 102 | 0.0 | 1.0 | 0.00 | 0.00 | 0.00 | 83 | 1015.9 |
| 20260507000018 | 50 | 4 | 0.0 | 1.0 | 0.00 | 0.00 | 0.00 | 83 | 1015.9 |
| 20260506235018 | 51 | 349 | 1.0 | 3.0 | 0.00 | 0.00 | 0.00 | 83 | 1015.9 |
| 20260506234038 | 51 | 87 | 0.0 | 0.0 | 0.00 | 0.00 | 0.00 | 82 | 1015.8 |
| 20260506233018 | 51 | 19 | 1.0 | 3.0 | 0.00 | 0.00 | 0.00 | 81 | 1015.8 |
| 20260506232019 | 51 | 340 | 0.0 | 1.0 | 0.00 | 0.00 | 0.00 | 81 | 1015.8 |
| 20260506231019 | 51 | 4 | 2.0 | 3.0 | 0.00 | 0.00 | 0.00 | 81 | 1015.8 |
| 20260506230018 | 51 | 16 | 1.0 | 2.0 | 0.00 | 0.00 | 0.00 | 80 | 1015.8 |
| 20260506225019 | 51 | 68 | 0.0 | 1.0 | 0.00 | 0.00 | 0.00 | 80 | 1015.7 |
| 20260506224019 | 51 | 14 | 1.0 | 2.0 | 0.00 | 0.00 | 0.00 | 80 | 1015.7 |
| 20260506223019 | 51 | 32 | 0.0 | 3.0 | 0.00 | 0.00 | 0.00 | 80 | 1015.7 |
| 20260506222019 | 52 | 61 | 1.0 | 2.0 | 0.00 | 0.00 | 0.00 | 80 | 1015.7 |
| 20260506221019 | 52 | 47 | 1.0 | 3.0 | 0.00 | 0.00 | 0.00 | 80 | 1015.7 |
| 20260506220019 | 52 | 37 | 1.0 | 3.0 | 0.00 | 0.00 | 0.00 | 79 | 1015.6 |
| 20260506215019 | 52 | 79 | 1.0 | 3.0 | 0.00 | 0.00 | 0.00 | 79 | 1015.6 |
| 20260506214040 | 52 | 48 | 1.0 | 3.0 | 0.00 | 0.00 | 0.00 | 79 | 1015.6 |
| 20260506213020 | 52 | 84 | 2.0 | 3.0 | 0.00 | 0.00 | 0.00 | 79 | 1015.6 |
| 20260506212020 | 52 | 61 | 1.0 | 4.0 | 0.00 | 0.00 | 0.00 | 79 | 1015.5 |
| 20260506211020 | 52 | 13 | 2.0 | 4.0 | 0.00 | 0.00 | 0.00 | 79 | 1015.5 |
| 20260506210101 | 52 | 52 | 0.0 | 2.0 | 0.00 | 0.00 | 0.00 | 78 | 1015.4 |
| 20260506205018 | 52 | 26 | 1.0 | 5.0 | 0.00 | 0.00 | 0.00 | 78 | 1015.3 |
| 20260506204018 | 52 | 75 | 1.0 | 3.0 | 0.00 | 0.00 | 0.00 | 78 | 1015.2 |